Regional Weather Roundup
Issued by NWS Wakefield, VA

Home | Current Version | Previous Version | Text Only | Print | Product List | Glossary Off
Versions: 1 2 3 4 5 6 7 8 9 10 11 12 13 14 15 16 17 18 19 20 21 22 23 24 25 26 27 28 29 30 31 32 33 34 35 36 37 38 39 40 41 42 43 44 45 46 47 48 49 50

000
ASUS41 KAKQ 041314
RWRAKQ

REGIONAL WEATHER ROUNDUP
NATIONAL WEATHER SERVICE WAKEFIELD VA
900 AM EDT SAT JUL 04 2015

Note: "fair" indicates few or no clouds below 12,000 feet with no
significant weather and/or obstructions to visibility. * = Denotes
station may not report precipitation (e.g., rain,snow,etc.),
thunder or fog.

VAZ042-051-052>054-056-041400-
NORTHERN VIRGINIA

CITY           SKY/WX    TMP DP  RH WIND       PRES   REMARKS
WASH NATIONAL  LGT RAIN  73  70  88 N3        29.91R
DULLES         HVY RAIN  68  66  93 CALM      29.92R FOG
FORT BELVOIR   DRIZZLE   72  70  94 CALM      29.91R
QUANTICO       CLOUDY    72  68  87 NW6       29.91R
FREDERICKSBRG* PTSUNNY   74  72  95 CALM      29.90S
STAFFORD*      PTSUNNY   71  68  90 CALM      29.95S FOG
WARRENTON      CLOUDY    70  70  98 CALM      29.91S
CULPEPER*      CLOUDY    70  68  93 CALM      29.92S
MANASSAS*      RAIN      70  68  94 CALM        N/A  FOG
LEESBURG*      LGT RAIN  70  70 100 CALM      29.93R
WINCHESTER     CLOUDY    72  68  88 S3        29.92S
FRONT ROYAL*   CLOUDY    68  66  94 S3        29.91S
LURAY*         CLOUDY    72  72 100 SW6       29.93R FOG
$$

VAZ048-049-060>072-079>083-041400-
CENTRAL AND SOUTH CENTRAL VIRGINIA

CITY           SKY/WX    TMP DP  RH WIND       PRES   REMARKS
RICHMOND       CLOUDY    74  70  87 W5        29.91R FOG
CHESTERFIELD*  NOT AVBL
PETERSBURG*    CLOUDY    74  74 100 SW6       29.93S
HANOVER        CLOUDY    71  69  93 W3        29.93R FOG
TAPPAHANNOCK*  CLOUDY    75  69  80 W3        29.91S
QUINTON*       NOT AVBL
CHARLOTTSVILLE CLOUDY    70  66  87 CALM      29.92S FOG
GORDONSVILLE*  CLOUDY    70  66  88 CALM      29.92S
ORANGE*        CLOUDY    72  68  88 CALM      29.93S
LOUISA*        CLOUDY    72  68  88 CALM      29.91S
BUMPASS*       CLOUDY    71  67  89 MISG      29.92R
FARMVILLE*     CLOUDY    74  73  98 SW3       29.92S
CREWE*         CLOUDY    72  70  92 W3        29.93R
FORT PICKETT*  CLOUDY    71  70  96 W3        29.93S
CHASE CITY*    CLOUDY    74  74 100 CALM      29.95R
CLARKSVILLE*   CLOUDY    72  72 100 SW5       29.94R
SOUTH HILL*    CLOUDY    72  71  96 SW6       30.00R
LAWRENCEVILLE* NOT AVBL
EMPORIA*         N/A     72  70  94 S3        29.94S
$$

VAZ088>098-041400-
SOUTHEAST VIRGINIA

CITY           SKY/WX    TMP DP  RH WIND       PRES   REMARKS
NORFOLK        MOSUNNY   76  69  79 W6        29.89S
VIRGINIA BEACH MOSUNNY   80  71  74 W12       29.89R
NORFOLK NAVAL  PTSUNNY   75  70  84 W12       29.91S
WEST POINT*    CLOUDY    75  72  90 W6        29.91S
SALUDA*        CLOUDY    75  71  87 NW6       29.88S
NEWPORT NEWS   CLOUDY    74  71  91 W10       29.89F
LANGLEY AFB    CLOUDY    73  71  93 W12       29.88R
FORT EUSTIS    CLOUDY    73 N/A N/A W9        29.88S
WILLIAMSBURG*  MOSUNNY   75  73  94 W7        29.91S
HR EXEC AP*    PTSUNNY   75  70  83 SW12G17   29.93R
FRANKLIN*      CLOUDY    73  70  92 W8        29.93S
WAKEFIELD      PTSUNNY   76  70  82 SW6       29.91F
$$

VAZ020-022-025-037-045-041400-
WEST CENTRAL AND SOUTHWEST VIRGINIA

CITY           SKY/WX    TMP DP  RH WIND       PRES   REMARKS
STAUNTON*      CLOUDY    72  69  90 S6        29.96S FOG
WAYNESBORO*    CLOUDY    68  67  95 CALM      29.95S
HOT SPRINGS VA DRZL/FOG  63  63 100 W12G20    30.03R VSB<1/4
LYNCHBURG      PTSUNNY   70  68  93 SW6       29.96R FOG
DANVILLE       CLOUDY    74  70  87 SW5       29.95R
SOUTH BOSTON*  CLOUDY    73  71  93 MISG      29.94S
MARTINSVILLE   MOSUNNY   74  73  98 CALM      29.98S
ROANOKE        PTSUNNY   72  68  87 SW7       29.98R
BLACKSBURG     CLOUDY    69  67  94 SW3       30.04R
DUBLIN*        CLOUDY    71  69  93 SW7       30.03R
MARION*        CLOUDY    66  64  93 W10G17    30.06R
HILLSVILLE*    PTSUNNY   67  64  92 W6        30.03S
RICHLANDS*     LGT RAIN  64  64 100 SW9G16    30.05R
WISE*          RAIN      64  64 100 W6        30.07R
ABINGDON*      CLOUDY    68  68  99 W5        30.05R
$$

MDZ021>025-VAZ099-100-041400-
SOUTHERN MARYLAND AND THE DELMARVA PENINSULA

CITY           SKY/WX    TMP DP  RH WIND       PRES   REMARKS
PATUXENT RIVER PTSUNNY   75  69  81 N5        29.89R
BAY BRIDGE APT   N/A     73  66  78 E6        29.90R
LEONARDTOWN    MOSUNNY   73  68  83 CALM      29.91R
DOVER          MOSUNNY   75  69  80 NE10      29.88R
GEORGETOWN     CLOUDY    74  69  85 E13       29.88R
EASTON         SUNNY     75  73  94 E3        29.93R
CAMBRIDGE      MOSUNNY   77  70  78 NE5       29.88R
SALISBURY      CLOUDY    74  71  91 N7        29.86R
OCEAN CITY     CLOUDY    73  71  93 NE12      29.84S FOG
WALLOPS ISLAND CLOUDY    76  74  93 NW8       29.85R
ACCOMACK*      CLOUDY    75  73  94 NW7       29.86S
$$

NCZ012>017-030>032-041400-
NORTH CENTRAL AND EASTERN NORTH CAROLINA

CITY           SKY/WX    TMP DP  RH WIND       PRES   REMARKS
ROANOKE RAPIDS CLOUDY    73  70  88 SW9       29.94S
RALEIGH        PTSUNNY   76  69  79 W12G20    29.97R
ELIZABETH CITY PTSUNNY   77  72  84 W10G24    29.93S
AHOSKIE*       PTSUNNY  N/A N/A N/A CALM      29.94S
EDENTON*       SUNNY     78  70  75 W10G17    29.94S
CURRITUCK*     CLOUDY    76  71  85 SW10      29.93R
KILL DEVIL HLS MOSUNNY   78  72  80 W12G24    29.92F
MANTEO         MOSUNNY   77  71  81 W14G20    29.94F
CAPE HATTERAS  PTSUNNY   80  71  74 W14G29    29.97S
TARBORO*         N/A     79  70  73 SW10G17   29.96S
GOLDSBORO      MOSUNNY   80  72  77 SW13G20   29.95S
WASHINGTON     SUNNY     78  71  78 W10G16    29.96F
GREENVILLE     SUNNY     79  72  78 W9        29.98S
NEW BERN       SUNNY     81  71  71 W12G17    29.98F
WILMINGTON     CLOUDY    81  67  62 W15G24    30.02R
$$

VAZ048-041400-
ELSEWHERE

CITY           SKY/WX    TMP DP  RH WIND       PRES   REMARKS
HARRISBURG PA  LGT RAIN  66  64  93 N3        29.93R FOG
BALTIMORE      CLOUDY    73  68  84 E7        29.90R
ANNAPOLIS      PTSUNNY   74  67  78 VRB3      29.90R
ANDREWS AFB    CLOUDY    73  71  95 SE3       29.90R
PHILADELPHIA   PTSUNNY   74  66  76 NE8       29.91F
HENDERSON NC   CLOUDY    73  69  87 SW9       29.96R
GREENSBORO     PTSUNNY   74  69  85 W10       29.97R
ROCKY MOUNT    SUNNY     79  69  71 SW12G22   29.95S
$$

VAZ100-041400-
MARINE

STATION/POSITION TIME  TEMP    WIND        PRES    WAVE   SWELL
                       AIR SEA DIR/SP/G            HT/PER HT/PER
                 (UTC) (F)     (DEG/KT/KT) (MB)    (FT/S) (FT/S)
BRANDYWINE LGT   1200   74 74   90/ 15/ 17 1011.5F
CAPE MAY NJ      1200   74 75   80/ 10/ 15 1011.1S
LEWES DE         1200   73 72   90/ 13/ 15 1011.0R
15NM E FENWICK I 1250   72 73              1010.2S   4/ 4
OCEAN-CITY-INLET 1200   73 73   80/ 10/ 14 1010.1R
WACHAPREAGUE VA  1200   74 78  280/  2/  3 1010.6R
GOOSES REEF MD   1300   74 77   30/  4/  6 1013.2R
COVE POINT MD    1200   73      30/  4/  5 1012.5R
SOLOMONS ISLAND  1200      79                N/A
BISHOPS HEAD MD  1200   74      10/  7/  8 1011.1R
PINEY POINT MD   1206           60/  2/  3   N/A
CAMBRIDGE MD     1200   73 78   60/  4/  7 1011.4R
LEWISETTA VA     1200   74 79   30/  4/  5 1011.6R
RAPPAHANNOCK LGT 1200          330/ 11/ 12 1011.6R
STINGRAY PT      1300   76 80  310/  8/ 10 1011.8R   1/ 3
YORK RVR RNG VA  1200   75     280/ 14/ 16 1011.0R
YORKTOWN VA      1200   74 79  260/  9/ 12 1011.5R
JAMESTOWN VA     1300   73 82  260/ 10/ 12   N/A
DOMINION TERM VA 1200   73     270/ 15/ 19 1012.2R
KIPTOPEKE VA     1200      81  270/ 19/ 22   N/A
CHES BAY BRIDGE  1200   73 76  240/ 21/ 24 1011.4R
CAPE HENRY VA    1200   73     250/ 15/ 21 1010.4R
CHESAPEAKE LGHT  1200   74     250/ 24/ 26 1011.9R
WILLOUBY STN VA  1206   73     250/ 21/ 23 1012.5R
CAPE HENRY BUOY  1228      76                N/A     4/ 8
1ST LANDING BUOY 1300      76              1012.0R   2/ 3
CAPE CHARLES BUO 1226      73                N/A     4/ 4   2/ 9
OFFSHORE WE BUOY 1211      77                N/A     5/ 5   2/ 7
64NM E OF VA BCH 1250   77 76  250/ 19/ 23 1011.6R   6/ 5   2/15
DUCK PIER NC     1200   77 67  260/ 20/ 25   N/A
44100 DUCK FRF   1224      75                N/A     4/ 8
44056 DUCK FRF   1211      75                N/A     3/ 8
OREGON INLET NC  1200   77 78  240/ 16/ 20 1013.7R
HATTERAS NC      1200   79 76  250/ 16/ 23 1014.5R
DIAMOND SHLS NC  1250   80 81  250/ 21/ 25 1014.8R   8/ 7   2/15
CAPE LOOKOUT NC  1300   81     240/ 12/ 15 1015.4S
$$


USA.gov is the U.S. government's official web portal to all federal, state and local government web resources and services.